SP1GDK-10 Weather Reports


Display with metric or nautical units.
time (UTC)temp
F
wind
direction
speed
MPH
gust
MPH
rain 1hr
in
rain 24hr
in
rain mn
in
humidity
%
barometer
mb
20260504222914 54 0.0 0.0 0.00 0.00 0.00 10 1013.8
20260504221913 54 0.0 0.0 0.00 0.00 0.00 10 1013.8
20260504215932 55 0.0 0.0 0.00 0.00 0.00 10 1013.8
20260504212915 55 0.0 0.0 0.00 0.00 0.00 10 1014.0
20260504211914 56 0.0 0.0 0.00 0.00 0.00 10 1014.0
20260504210913 56 0.0 0.0 0.00 0.00 0.00 10 1013.9
20260504205919 56 0.0 0.0 0.00 0.00 0.00 10 1014.0
20260504204918 57 0.0 0.0 0.00 0.00 0.00 10 1014.1
20260504203916 57 0.0 0.0 0.00 0.00 0.00 10 1014.0
20260504202914 57 0.0 0.0 0.00 0.00 0.00 10 1014.0
20260504201913 57 0.0 0.0 0.00 0.00 0.00 10 1014.2
20260504200914 58 0.0 0.0 0.00 0.00 0.00 10 1014.1
20260504195915 58 0.0 0.0 0.00 0.00 0.00 10 1014.1
20260504194914 58 0.0 0.0 0.00 0.00 0.00 10 1014.0
20260504193912 58 0.0 0.0 0.00 0.00 0.00 10 1014.1
20260504192913 59 0.0 0.0 0.00 0.00 0.00 10 1014.0
20260504191926 59 0.0 0.0 0.00 0.00 0.00 10 1014.1
20260504190914 59 0.0 0.0 0.00 0.00 0.00 10 1014.0
20260504184916 60 0.0 0.0 0.00 0.00 0.00 10 1013.9
20260504183919 60 0.0 0.0 0.00 0.00 0.00 10 1013.8
20260504182918 61 0.0 0.0 0.00 0.00 0.00 10 1013.6
20260504181925 61 0.0 0.0 0.00 0.00 0.00 10 1013.5
20260504180914 62 0.0 0.0 0.00 0.00 0.00 10 1013.5
20260504175913 63 0.0 0.0 0.00 0.00 0.00 10 1013.4
20260504175813 63 0.0 0.0 0.00 0.00 0.00 10 1013.3
20260504175714 63 0.0 0.0 0.00 0.00 0.00 10 1013.3
20260504175613 62 0.0 0.0 0.00 0.00 0.00 10 1013.3
20260504175513 62 0.0 0.0 0.00 0.00 0.00 10 1013.3
20260504175416 63 0.0 0.0 0.00 0.00 0.00 10 1013.3
20260504171912 63 0.0 0.0 0.00 0.00 0.00 89 1013.1
20260504170919 64 0.0 0.0 0.00 0.00 0.00 86 1013.1
20260504140915 73 0.0 0.0 0.00 0.00 0.00 46 1012.7
20260504081915 69 0.0 0.0 0.00 0.00 0.00 69 1012.6
20260504080915 67 0.0 0.0 0.00 0.00 0.00 75 1012.6
20260504045919 63 0.0 0.0 0.00 0.00 0.00 66 1011.6
20260504044919 63 0.0 0.0 0.00 0.00 0.00 64 1011.5
20260504043915 63 0.0 0.0 0.00 0.00 0.00 64 1011.5
20260504042919 63 0.0 0.0 0.00 0.00 0.00 63 1011.4
20260504041918 62 0.0 0.0 0.00 0.00 0.00 64 1011.4
20260504040915 62 0.0 0.0 0.00 0.00 0.00 64 1011.5
20260504035915 62 0.0 0.0 0.00 0.00 0.00 64 1011.4
20260504034912 62 0.0 0.0 0.00 0.00 0.00 62 1011.5
20260504033911 62 0.0 0.0 0.00 0.00 0.00 61 1011.3
20260504031915 62 0.0 0.0 0.00 0.00 0.00 58 1011.3
20260504030916 62 0.0 0.0 0.00 0.00 0.00 56 1011.2
20260504025914 62 0.0 0.0 0.00 0.00 0.00 55 1011.1
20260504024912 63 0.0 0.0 0.00 0.00 0.00 54 1011.0
20260504023914 63 0.0 0.0 0.00 0.00 0.00 53 1011.1
20260504022917 63 0.0 0.0 0.00 0.00 0.00 52 1011.0
20260504021920 63 0.0 0.0 0.00 0.00 0.00 52 1011.0
20260504020927 63 0.0 0.0 0.00 0.00 0.00 51 1011.0
20260504015917 63 0.0 0.0 0.00 0.00 0.00 51 1010.9
20260504014914 63 0.0 0.0 0.00 0.00 0.00 50 1010.9
20260504013913 63 0.0 0.0 0.00 0.00 0.00 50 1010.8
20260504012918 63 0.0 0.0 0.00 0.00 0.00 50 1010.8
20260504005922 64 0.0 0.0 0.00 0.00 0.00 49 1010.4
20260504004913 65 0.0 0.0 0.00 0.00 0.00 48 1010.6
20260504003919 65 0.0 0.0 0.00 0.00 0.00 48 1010.5
20260504002914 65 0.0 0.0 0.00 0.00 0.00 48 1010.5
20260504001913 65 0.0 0.0 0.00 0.00 0.00 49 1010.5
20260504000914 65 0.0 0.0 0.00 0.00 0.00 49 1010.5
20260503235913 65 0.0 0.0 0.00 0.00 0.00 49 1010.6
20260503232919 64 0.0 0.0 0.00 0.00 0.00 49 1010.7
20260503231913 64 0.0 0.0 0.00 0.00 0.00 49 1010.6
20260503224913 64 0.0 0.0 0.00 0.00 0.00 50 1010.8
20260503223912 64 0.0 0.0 0.00 0.00 0.00 51 1010.8